Flag for Austria Weather past 2 weeks in Schwechat, Lower Austria, Austria

Now
61 °F

Fog.


Feels Like: 61 °F
Forecast: 54 / 60 °F
Wind: 5 mph from South

Location: Vienna Schwechat-Flughafen Airport

Current Time: Aug 31, 2014 at 6:42:45 AM

Latest Report: Aug 31, 2014 at 5:50 AM


Visibility: N/A

Pressure: 30.01 "Hg

Humidity: 100%

Dew point: 61 °F

Location of SchwechatLocation

Historic Weather in Schwechat — Graph

°F

Schwechat temperature yesterday

Maximum temperature yesterday: 64 °F (at 2:50 PM)
Minimum temperature yesterday: 59 °F (at 1:20 AM)
Average temperature yesterday: 62 °F

Past Weeks' High & Low Weather Summary

 TemperatureHumidityPressure
High77 °F (Aug 18, 2:20 PM)100% (Aug 21, 3:20 AM)30.15 "Hg (Aug 21, 3:20 AM)
Low48 °F (Aug 25, 3:20 AM)40% (Aug 28, 12:20 PM)29.74 "Hg (Aug 26, 4:50 PM)
Average62 °F75%29.99 "Hg
* Reported Aug 16 5:20 AM — Aug 31 5:20 AM, Schwechat, Weather by CustomWeather, © 2014

Note: Actual official high and low records may vary slightly from our data, if they occured in-between our weather recording intervals... More about our weather records

Advertising

Schwechat weather history for previous 24 hours

 ConditionsComfort  
Time TempWeatherWind HumidityBarometerVisibility
5:20 AM
Aug 31
61 °FLight rain. Fog.2 mph94%30.01 "Hg4 mi
4:50 AM61 °FFog.3 mph100%30.01 "Hg4 mi
4:20 AM59 °FFog.2 mph100%30.04 "Hg5 mi
3:50 AM61 °FFog.5 mph94%30.04 "Hg4 mi
3:20 AM61 °FFog.6 mph100%30.04 "Hg5 mi
2:50 AM61 °FSprinkles. Fog.6 mph100%30.04 "Hg5 mi
2:20 AM61 °FSprinkles. Passing clouds.7 mph100%30.04 "Hg5 mi
1:50 AM61 °FFog.3 mph100%30.07 "HgN/A
1:20 AM61 °FSleet. Overcast.3 mph100%30.07 "HgN/A
12:50 AM61 °FSleet. Overcast.6 mph100%30.07 "Hg5 mi
12:20 AM61 °FSleet. Overcast.3 mph100%30.07 "Hg5 mi
11:50 PM
Aug 30
61 °FFog.5 mph100%30.07 "HgN/A
11:20 PM61 °FFog.7 mph100%30.07 "Hg6 mi
10:50 PM61 °FFog.6 mph100%30.07 "Hg6 mi
10:20 PM61 °FClear.5 mph100%30.07 "Hg10 mi
9:50 PM63 °FPassing clouds.3 mph94%30.07 "HgN/A
9:20 PM63 °FPassing clouds.1 mph94%30.07 "HgN/A
8:50 PM63 °FPassing clouds.2 mph94%30.07 "HgN/A
7:50 PM63 °FPartly sunny.5 mph94%30.07 "HgN/A
7:20 PM63 °FPartly sunny.1 mph94%30.07 "HgN/A
6:50 PM64 °FPartly sunny.2 mph88%30.07 "HgN/A
6:20 PM64 °FBroken clouds.5 mph88%30.07 "HgN/A
5:50 PM63 °FLight rain. Broken clouds.6 mph94%30.07 "HgN/A
5:20 PM64 °FLight rain. Broken clouds.5 mph88%30.09 "HgN/A
4:50 PM64 °FLight rain. Broken clouds.6 mph88%30.09 "HgN/A
4:20 PM64 °FLight rain. Broken clouds.3 mph88%30.09 "HgN/A
3:50 PM64 °FLight rain. Broken clouds.1 mph88%30.09 "HgN/A
3:20 PM64 °FLight rain. Broken clouds.2 mph88%30.09 "HgN/A
2:50 PM64 °FLight rain. Broken clouds.1 mph88%30.09 "HgN/A
2:20 PM63 °FLight rain. Broken clouds.2 mph94%30.12 "HgN/A
1:50 PM63 °FRain. Broken clouds.1 mph88%30.12 "HgN/A
1:20 PM63 °FRain. Broken clouds.2 mph88%30.12 "HgN/A
12:50 PM63 °FLight rain. Broken clouds.3 mph88%30.12 "HgN/A
12:20 PM63 °FRain. Broken clouds.6 mph94%30.12 "Hg4 mi
11:50 AM63 °FRain. Broken clouds.3 mph100%30.12 "Hg4 mi
11:20 AM63 °FLight rain. Broken clouds.2 mph94%30.12 "HgN/A
10:50 AM63 °FBroken clouds.5 mph94%30.09 "HgN/A
10:20 AM63 °FLight rain. Broken clouds.3 mph88%30.09 "HgN/A
9:50 AM63 °FLight rain. Broken clouds.1 mph88%30.09 "HgN/A
9:20 AM61 °FLight rain. Partly sunny.2 mph94%30.09 "HgN/A
8:50 AM61 °FLight rain. Partly sunny.5 mph94%30.09 "HgN/A
8:20 AM61 °FLight rain. Partly sunny.5 mph94%30.07 "HgN/A
7:50 AM63 °FPartly sunny.3 mph83%30.07 "HgN/A
7:20 AM63 °FPartly sunny.3 mph83%30.07 "HgN/A
6:50 AM59 °FPassing clouds.5 mph94%30.07 "HgN/A
6:20 AM59 °FPassing clouds.5 mph94%30.07 "HgN/A
Weather by CustomWeather, © 2014

See weather overviewHow to use our weather pages